Wind_Speed
6 5 4 3 3 2 2 2 2 2 3 4 5 6 7 7 7 7 8 8 9 9 10 9 9 10 10 10 10 10 10 9 9 9 8 7 6 5 5 5 6 6 6 6
7 6 5 5 4 4 3 3 3 4 4 5 6 6 7 8 7 7 7 8 7 8 9 9 9 9 9 9 9 9 9 10 10 9 9 9 6 5 5 6 7 7 7 7
8 7 7 7 6 6 6 5 5 5 6 6 7 7 8 8 7 7 7 7 7 8 8 8 8 9 9 9 9 9 9 10 10 9 9 9 8 7 7 7 8 8 7 7
9 9 8 7 7 8 7 7 7 7 7 7 8 8 8 9 8 8 7 7 7 8 9 8 8 8 9 9 9 9 9 9 10 9 10 10 10 9 9 9 10 10 9 9
10 9 8 8 8 8 8 8 9 9 8 8 8 9 9 9 9 9 9 9 8 8 9 9 9 9 9 9 9 9 9 9 10 10 10 11 11 11 10 10 11 10 10 10
10 9 9 8 8 8 9 10 10 10 10 10 10 10 9 9 10 10 10 9 9 8 9 10 10 9 9 10 10 10 10 10 10 11 11 11 11 11 12 12 12 11 11 12
10 10 9 9 9 8 9 10 11 11 11 10 10 10 10 10 11 11 10 9 9 9 10 10 10 10 10 10 10 10 11 11 12 12 12 12 12 12 12 12 12 12 13 14
12 10 10 11 10 10 9 10 11 12 12 11 10 11 11 11 11 11 11 11 10 9 10 11 11 11 12 11 11 11 12 13 13 13 13 13 13 13 13 13 13 14 14 15
13 12 12 12 12 12 11 12 12 13 12 11 11 11 12 11 11 11 12 11 11 11 12 12 12 12 13 13 13 12 13 14 14 14 14 14 14 14 15 15 15 15 15 16
14 13 12 13 14 14 13 13 13 13 12 12 12 12 12 12 12 12 12 13 12 12 13 14 14 13 13 13 13 13 14 15 15 15 15 15 15 16 16 16 17 16 17 17
15 15 14 15 16 16 16 15 15 14 14 14 15 14 14 14 15 14 14 14 13 13 13 14 14 14 14 14 15 15 16 16 16 17 16 16 17 17 17 17 18 18 18 18
16 16 16 17 17 17 18 17 17 17 16 16 17 16 16 16 16 16 16 15 15 15 14 14 15 15 16 16 16 17 17 17 17 18 18 19 19 19 18 18 18 18 18 19
19 19 19 19 19 19 20 19 19 19 18 19 19 19 18 19 18 18 18 17 17 17 16 17 17 17 17 18 18 19 18 18 19 19 20 20 20 20 19 19 19 19 19 20
22 22 22 21 20 20 21 21 20 21 21 21 21 21 21 20 20 19 19 19 19 19 19 19 19 19 20 20 20 20 20 20 21 21 21 21 21 21 21 21 20 20 20 21
25 25 24 23 22 22 22 22 22 22 23 23 22 22 22 22 21 21 21 20 20 21 21 21 21 21 21 21 22 22 22 22 22 22 22 22 22 22 23 22 22 22 22 23
27 26 25 25 25 24 24 24 23 23 24 24 23 23 23 23 23 22 21 21 21 22 23 22 22 22 22 22 22 23 23 23 24 24 24 24 24 24 24 23 23 23 24 24
28 28 28 27 27 27 26 25 24 25 25 25 24 23 24 24 23 23 23 23 23 23 24 23 22 21 22 23 23 24 24 24 24 24 24 24 25 25 24 24 24 24 25 25
28 28 28 29 29 30 27 27 27 26 26 26 26 25 25 24 23 23 23 24 23 23 23 22 22 23 24 24 24 24 24 24 25 25 25 25 25 24 24 24 25 25 26 26
30 29 30 30 30 30 28 28 27 27 27 27 27 27 26 25 24 23 24 24 24 23 23 23 22 23 24 25 25 25 25 26 26 25 25 25 25 25 25 25 25 26 26 27
31 31 31 31 31 32 29 28 28 29 28 26 26 26 25 25 25 24 25 26 25 24 24 24 24 24 25 25 25 25 26 27 26 26 26 26 26 26 25 25 26 27 27 28
31 31 32 32 31 31 30 30 29 29 27 26 26 26 26 26 25 26 26 27 26 25 25 26 25 26 26 25 25 26 27 27 27 27 26 26 26 26 26 26 26 27 28 29
31 32 32 32 32 31 30 30 29 28 27 27 28 27 27 27 27 27 26 26 25 25 25 26 26 26 26 26 26 27 27 27 26 25 26 26 26 27 27 27 27 28 29 30
32 32 33 33 32 31 30 30 30 29 29 29 29 27 27 27 27 27 26 25 26 26 26 26 26 27 27 26 27 27 27 26 25 25 25 26 26 27 27 27 28 29 29 29
33 32 32 32 32 32 32 31 31 30 30 29 29 28 28 28 28 28 27 26 26 27 27 27 27 27 27 26 27 27 26 26 25 25 25 26 26 26 27 27 28 28 27 28
32 32 32 32 33 33 33 32 31 30 30 30 30 29 29 29 28 28 27 27 27 26 27 26 26 27 26 26 26 26 26 26 25 24 24 25 25 26 26 27 27 27 27 27
31 32 32 32 33 33 32 31 31 31 31 31 31 30 29 29 28 28 28 27 27 27 27 26 25 26 26 26 26 26 26 25 24 24 24 25 25 25 26 26 26 26 26 26
Wind_Direction
208 214 214 213 221 240 263 300 310 335 356 3 0 356 358 3 359 7 12 15 21 22 23 24 22 19 16 12 12 10 9 5 1 359 357 358 357 357 358 352 340 330 325 326
217 223 227 231 233 241 253 272 283 296 318 331 341 347 355 355 357 356 359 5 10 11 13 13 14 12 11 8 6 2 1 358 355 354 353 353 349 347 339 328 333 328 320 321
229 232 231 231 239 240 251 270 280 287 297 308 313 328 337 343 347 348 347 351 357 359 0 3 7 4 2 359 355 353 351 350 349 348 350 350 348 339 334 326 328 327 319 315
230 234 237 236 242 246 249 267 277 286 292 300 309 321 329 330 335 339 336 338 344 349 350 350 353 355 354 353 352 347 344 345 346 347 345 347 346 344 337 332 329 325 317 314
233 236 239 243 251 252 256 265 274 282 287 293 300 309 321 324 326 327 326 326 334 341 342 339 340 346 345 345 344 343 339 337 338 340 341 342 341 339 333 330 328 324 319 315
236 235 237 246 253 259 265 269 276 283 285 286 296 303 314 316 315 315 312 317 327 330 331 329 331 334 334 335 336 337 338 335 335 335 335 336 337 336 332 329 326 322 317 313
237 239 238 246 253 258 267 272 278 281 283 285 291 295 305 308 308 307 303 307 319 323 326 325 324 326 325 326 327 330 334 333 330 329 330 330 329 328 325 322 317 314 313 313
236 236 241 246 248 256 267 279 283 285 285 285 283 292 298 302 300 302 301 302 309 316 322 322 319 318 320 320 321 323 326 327 324 324 324 322 321 320 319 317 313 309 308 308
239 239 242 246 247 257 263 273 280 283 286 284 286 292 299 301 297 299 303 303 306 310 316 317 317 314 316 315 317 317 320 322 320 319 318 316 315 316 316 314 313 309 305 304
241 241 240 248 255 259 261 271 276 282 287 285 286 295 301 303 298 300 301 303 303 305 309 313 312 311 316 318 318 316 315 316 317 317 315 312 311 311 311 311 310 307 303 302
244 245 243 248 259 263 265 269 273 278 280 284 286 294 298 300 297 297 298 300 300 303 307 311 311 311 313 315 314 312 313 314 315 314 312 310 307 308 307 306 306 304 302 301
250 252 252 253 258 261 265 269 272 275 278 280 284 289 294 295 295 295 296 296 297 299 303 309 313 312 310 311 311 310 309 309 309 309 309 308 306 304 303 303 303 302 302 301
253 255 257 258 261 262 264 269 273 276 276 276 281 287 291 290 291 294 297 295 295 296 299 303 308 310 307 307 308 308 307 306 305 305 305 306 306 306 303 300 300 300 300 300
254 256 259 262 264 262 264 268 272 274 276 278 281 285 288 287 288 290 294 294 295 295 297 299 303 305 305 305 305 305 304 303 303 303 304 304 305 304 304 299 298 299 299 299
254 257 260 260 263 264 268 270 271 272 276 278 278 279 283 283 283 285 288 289 290 290 292 295 299 302 303 304 304 304 303 302 303 304 303 304 304 304 302 299 297 297 297 297
257 259 260 262 264 265 267 269 270 273 275 277 277 278 279 280 282 282 284 285 287 289 289 291 295 297 299 301 302 302 303 303 303 304 303 303 305 303 301 299 296 295 296 296
258 260 262 264 264 265 264 267 271 273 274 275 277 279 281 281 282 283 281 280 283 286 289 289 290 293 295 295 298 300 301 302 304 303 303 304 305 304 301 299 297 295 295 296
258 260 262 264 266 266 268 267 267 269 271 273 276 278 279 281 280 280 280 280 281 284 286 288 288 290 292 293 296 299 301 301 302 303 303 304 304 304 302 300 299 298 297 297
258 259 261 264 266 269 269 269 269 269 271 274 276 276 275 278 279 281 280 281 281 282 282 284 286 287 289 290 294 298 300 300 302 302 301 301 301 301 300 299 298 298 298 298
258 259 261 262 266 269 271 270 270 272 273 276 277 274 274 276 278 281 281 282 281 280 281 282 283 286 288 290 293 296 300 300 301 301 301 301 300 300 300 299 298 298 298 298
257 259 260 262 264 268 271 271 272 272 275 276 278 277 277 277 279 280 281 282 281 279 277 279 282 284 286 288 293 296 298 299 299 299 299 300 300 300 300 300 300 299 299 299
255 257 259 261 263 266 269 270 270 272 274 277 279 280 279 279 279 280 280 279 279 280 278 279 281 285 288 290 294 296 297 297 297 298 300 300 300 300 299 299 301 301 301 300
256 258 260 260 262 265 267 267 268 270 273 276 278 279 279 280 279 279 280 280 279 282 281 282 285 288 289 292 294 295 297 296 296 296 298 299 299 300 300 300 301 300 300 300
257 258 260 261 261 263 265 266 267 269 271 272 274 276 277 278 280 279 278 279 279 279 281 283 285 286 287 291 293 294 295 297 297 298 298 299 299 300 301 300 301 302 302 302
258 259 260 261 262 262 263 264 265 268 269 269 271 274 275 276 279 283 283 281 278 278 280 281 284 286 288 290 293 293 295 297 297 298 300 301 301 300 300 301 303 304 304 305
259 259 259 260 261 263 263 263 264 266 267 269 271 274 277 279 282 285 284 283 280 280 283 282 283 285 287 290 292 292 294 295 295 297 298 299 301 301 301 302 303 304 305 307
Height
5904 5906 5906 5907 5907 5907 5907 5907 5906 5906 5905 5904 5903 5903 5901 5900 5899 5897 5896 5895 5893 5892 5890 5888 5887 5885 5884 5882 5881 5880 5878 5877 5875 5874 5873 5872 5870 5870 5869 5868 5867 5866 5865 5864
5905 5905 5906 5906 5906 5907 5907 5906 5906 5906 5905 5904 5903 5902 5901 5900 5899 5898 5896 5895 5893 5892 5890 5889 5887 5885 5884 5882 5881 5879 5878 5876 5875 5873 5872 5870 5869 5868 5868 5867 5866 5865 5864 5863
5903 5905 5905 5906 5906 5906 5906 5906 5905 5905 5904 5903 5903 5902 5901 5900 5899 5897 5896 5895 5893 5891 5890 5889 5887 5885 5884 5882 5881 5879 5878 5876 5874 5872 5871 5870 5868 5867 5866 5865 5864 5863 5862 5861
5902 5903 5904 5904 5905 5905 5905 5905 5904 5904 5904 5903 5903 5902 5901 5900 5898 5897 5895 5894 5893 5891 5890 5888 5887 5885 5884 5882 5880 5878 5877 5875 5874 5872 5870 5869 5867 5866 5865 5864 5863 5862 5860 5859
5901 5902 5903 5903 5904 5903 5904 5903 5903 5903 5902 5902 5901 5901 5901 5899 5897 5896 5895 5893 5892 5890 5889 5887 5886 5884 5883 5881 5879 5878 5876 5874 5873 5871 5869 5867 5866 5865 5863 5862 5860 5859 5858 5857
5899 5900 5901 5902 5902 5902 5902 5902 5902 5901 5901 5901 5901 5900 5899 5897 5896 5895 5894 5892 5891 5889 5888 5886 5885 5883 5882 5880 5878 5877 5875 5873 5871 5870 5868 5866 5864 5863 5861 5860 5858 5857 5856 5855
5898 5899 5899 5900 5900 5901 5901 5901 5901 5900 5899 5899 5899 5898 5898 5896 5894 5893 5892 5891 5890 5888 5887 5885 5884 5882 5880 5879 5877 5875 5873 5871 5869 5868 5866 5864 5863 5861 5859 5858 5856 5855 5853 5852
5895 5897 5898 5898 5899 5898 5899 5899 5899 5898 5898 5897 5897 5896 5896 5894 5892 5891 5890 5889 5888 5887 5885 5884 5882 5880 5878 5876 5875 5873 5871 5869 5868 5866 5864 5862 5860 5859 5857 5855 5853 5852 5850 5849
5893 5894 5895 5896 5896 5897 5896 5896 5897 5896 5895 5895 5894 5894 5893 5892 5891 5890 5889 5888 5886 5885 5883 5881 5880 5878 5876 5874 5872 5871 5869 5867 5865 5863 5861 5859 5858 5856 5854 5852 5850 5848 5847 5845
5890 5892 5893 5893 5894 5894 5894 5894 5894 5894 5893 5892 5892 5891 5891 5890 5889 5888 5887 5886 5884 5882 5881 5879 5877 5875 5873 5871 5870 5868 5867 5865 5862 5860 5858 5856 5854 5852 5850 5848 5846 5844 5843 5841
5887 5889 5890 5890 5890 5891 5891 5892 5891 5891 5891 5890 5889 5891 5889 5887 5886 5885 5885 5883 5882 5880 5878 5876 5874 5872 5871 5869 5867 5865 5863 5861 5859 5857 5854 5852 5850 5848 5846 5844 5842 5840 5838 5837
5883 5884 5885 5887 5887 5887 5888 5888 5888 5889 5888 5887 5886 5889 5886 5884 5883 5882 5881 5880 5879 5877 5875 5873 5872 5870 5868 5866 5864 5862 5860 5857 5855 5852 5850 5848 5845 5843 5841 5839 5837 5835 5834 5832
5879 5880 5881 5882 5884 5884 5884 5884 5884 5884 5884 5883 5882 5885 5882 5880 5879 5878 5877 5876 5875 5873 5872 5870 5868 5866 5864 5862 5860 5858 5856 5853 5851 5848 5846 5843 5841 5838 5836 5834 5832 5830 5829 5827
5874 5875 5877 5878 5878 5879 5879 5879 5879 5879 5879 5878 5878 5878 5878 5876 5875 5874 5872 5871 5870 5869 5867 5866 5864 5862 5860 5858 5856 5853 5851 5848 5846 5843 5840 5838 5835 5833 5831 5828 5826 5825 5823 5821
5869 5870 5871 5872 5872 5873 5874 5874 5874 5874 5874 5873 5873 5872 5872 5872 5871 5869 5868 5866 5865 5864 5863 5861 5860 5858 5856 5853 5851 5848 5845 5843 5840 5837 5834 5832 5829 5827 5824 5822 5820 5818 5817 5815
5862 5864 5865 5866 5866 5867 5867 5868 5868 5869 5868 5868 5867 5867 5867 5866 5865 5864 5862 5861 5860 5859 5857 5856 5854 5852 5850 5848 5845 5842 5840 5837 5834 5831 5828 5826 5823 5820 5818 5816 5814 5812 5810 5808
5856 5857 5858 5859 5860 5860 5861 5863 5863 5863 5863 5862 5861 5862 5860 5860 5859 5858 5857 5856 5854 5853 5851 5850 5849 5847 5844 5842 5839 5836 5834 5831 5828 5825 5822 5819 5816 5813 5811 5809 5807 5806 5804 5802
5850 5851 5851 5852 5854 5853 5858 5856 5856 5856 5856 5856 5856 5855 5854 5854 5853 5852 5851 5849 5848 5847 5845 5844 5843 5841 5839 5836 5833 5830 5828 5825 5822 5819 5816 5813 5810 5807 5805 5803 5801 5799 5797 5795
5843 5844 5844 5845 5845 5846 5848 5849 5849 5849 5849 5849 5849 5848 5847 5847 5846 5845 5844 5843 5841 5840 5839 5837 5836 5834 5832 5830 5827 5824 5822 5819 5816 5813 5809 5806 5803 5800 5798 5796 5794 5791 5789 5787
5835 5837 5838 5838 5838 5839 5842 5842 5841 5842 5842 5842 5841 5841 5840 5840 5839 5839 5837 5835 5834 5833 5832 5830 5828 5827 5825 5823 5820 5818 5815 5813 5810 5807 5803 5800 5797 5794 5791 5789 5786 5784 5782 5780
5828 5829 5830 5830 5831 5832 5833 5833 5834 5835 5836 5835 5834 5834 5833 5832 5832 5832 5830 5828 5826 5825 5824 5823 5822 5820 5818 5816 5813 5811 5809 5806 5803 5800 5796 5793 5790 5787 5785 5782 5779 5777 5774 5772
5819 5821 5822 5822 5823 5826 5825 5825 5827 5827 5827 5827 5826 5826 5826 5825 5824 5823 5822 5820 5819 5817 5816 5815 5814 5813 5811 5809 5807 5804 5801 5799 5795 5793 5790 5787 5784 5781 5778 5776 5773 5770 5767 5764
5811 5813 5814 5815 5818 5817 5817 5818 5818 5819 5819 5819 5819 5818 5818 5817 5816 5815 5814 5813 5811 5810 5808 5808 5806 5805 5804 5801 5799 5797 5794 5791 5788 5786 5783 5780 5777 5774 5771 5768 5766 5762 5759 5756
5803 5804 5805 5807 5808 5809 5809 5810 5810 5811 5811 5811 5811 5811 5810 5810 5808 5807 5805 5805 5804 5803 5801 5800 5799 5798 5796 5794 5792 5789 5787 5784 5782 5779 5776 5774 5771 5768 5765 5762 5759 5755 5752 5748
5794 5796 5797 5798 5799 5800 5801 5801 5802 5803 5803 5803 5804 5803 5803 5802 5801 5799 5798 5797 5796 5794 5793 5792 5791 5790 5788 5786 5784 5782 5780 5777 5775 5772 5769 5767 5764 5761 5758 5755 5752 5748 5745 5742
5786 5787 5788 5789 5790 5791 5792 5793 5794 5795 5795 5795 5795 5795 5795 5794 5793 5791 5789 5788 5787 5787 5786 5785 5784 5783 5781 5779 5777 5775 5773 5770 5768 5765 5763 5760 5757 5754 5751 5748 5746 5742 5739 5736